When you browse on this site, cookies collect data to enhance your experience and personalize the content and advertising you see.
Visit our Privacy Policy to learn more. By continuing to use the site, you agree to this use of cookies and data.

Stündliche Wetter A dos Cunhados

Heute, 6 August, Donnerstag

Zeit Temperatur Niederschläge Wind Luftdruck Luftfeuchtigkeit
00:00 +19°C° 0 mm 4 m/S 750 mmHg 81%
01:00 +18°C° 0 mm 4 m/S 749 mmHg 84%
02:00 +18°C° 0 mm 4 m/S 749 mmHg 87%
03:00 +18°C° 0 mm 4 m/S 749 mmHg 89%
04:00 +18°C° 0 mm 3 m/S 749 mmHg 91%
05:00 +18°C° 0 mm 3 m/S 749 mmHg 93%
06:00 +20°C° 0 mm 3 m/S 750 mmHg 79%
07:00 +24°C° 0 mm 3 m/S 750 mmHg 66%
08:00 +27°C° 0 mm 3 m/S 750 mmHg 52%
09:00 +29°C° 0 mm 3 m/S 750 mmHg 46%
10:00 +31°C° 0 mm 3 m/S 750 mmHg 41%
11:00 +33°C° 0 mm 4 m/S 750 mmHg 36%
12:00 +33°C° 0 mm 4 m/S 750 mmHg 37%
13:00 +33°C° 0 mm 4 m/S 750 mmHg 38%
14:00 +33°C° 0 mm 5 m/S 750 mmHg 39%
15:00 +30°C° 0 mm 5 m/S 750 mmHg 45%
16:00 +28°C° 0 mm 5 m/S 750 mmHg 51%
17:00 +26°C° 0 mm 6 m/S 750 mmHg 57%
18:00 +23°C° 0 mm 5 m/S 751 mmHg 65%
19:00 +22°C° 0 mm 5 m/S 751 mmHg 74%
20:00 +20°C° 0 mm 5 m/S 751 mmHg 82%
21:00 +19°C° 0 mm 4 m/S 751 mmHg 85%
22:00 +19°C° 0 mm 4 m/S 752 mmHg 88%
23:00 +18°C° 0 mm 3 m/S 752 mmHg 90%

Morgen, 7 August, Freitag

Zeit Temperatur Niederschläge Wind Luftdruck Luftfeuchtigkeit
00:00 +18°C° 0 mm 3 m/S 752 mmHg 92%
01:00 +18°C° 0 mm 3 m/S 752 mmHg 93%
02:00 +18°C° 0 mm 3 m/S 751 mmHg 94%
03:00 +17°C° 0 mm 3 m/S 752 mmHg 95%
04:00 +17°C° 0 mm 3 m/S 752 mmHg 95%
05:00 +17°C° 0 mm 3 m/S 752 mmHg 96%
06:00 +20°C° 0 mm 3 m/S 753 mmHg 85%
07:00 +22°C° 0 mm 4 m/S 753 mmHg 74%
08:00 +25°C° 0 mm 4 m/S 754 mmHg 63%
09:00 +27°C° 0 mm 4 m/S 754 mmHg 56%
10:00 +28°C° 0 mm 5 m/S 754 mmHg 50%
11:00 +30°C° 0 mm 5 m/S 754 mmHg 43%
12:00 +30°C° 0 mm 5 m/S 754 mmHg 44%
13:00 +30°C° 0 mm 5 m/S 754 mmHg 45%
14:00 +29°C° 0 mm 6 m/S 754 mmHg 46%
15:00 +28°C° 0 mm 6 m/S 754 mmHg 52%
16:00 +26°C° 0 mm 6 m/S 754 mmHg 59%
17:00 +24°C° 0 mm 6 m/S 754 mmHg 65%
18:00 +22°C° 0 mm 6 m/S 754 mmHg 74%
19:00 +21°C° 0 mm 6 m/S 755 mmHg 84%
20:00 +20°C° 0 mm 6 m/S 755 mmHg 93%
21:00 +20°C° 0 mm 6 m/S 755 mmHg 94%
22:00 +20°C° 0 mm 6 m/S 755 mmHg 94%
23:00 +20°C° 0 mm 6 m/S 755 mmHg 94%

übermorgen, 8 August, Samstag

Zeit Temperatur Niederschläge Wind Luftdruck Luftfeuchtigkeit
00:00 +20°C° 0 mm 6 m/S 755 mmHg 94%
01:00 +19°C° 0 mm 5 m/S 755 mmHg 93%
02:00 +19°C° 0 mm 5 m/S 755 mmHg 93%
03:00 +19°C° 0 mm 5 m/S 755 mmHg 93%
04:00 +19°C° 0 mm 5 m/S 755 mmHg 92%
05:00 +19°C° 0 mm 5 m/S 755 mmHg 91%
06:00 +21°C° 0 mm 5 m/S 755 mmHg 82%
07:00 +22°C° 0 mm 5 m/S 755 mmHg 73%
08:00 +25°C° 0 mm 5 m/S 755 mmHg 64%
09:00 +26°C° 0 mm 5 m/S 755 mmHg 59%
10:00 +27°C° 0 mm 5 m/S 755 mmHg 53%
11:00 +28°C° 0 mm 6 m/S 755 mmHg 48%
12:00 +28°C° 0 mm 6 m/S 755 mmHg 49%
13:00 +28°C° 0 mm 6 m/S 755 mmHg 49%
14:00 +28°C° 0 mm 7 m/S 754 mmHg 50%
15:00 +27°C° 0 mm 7 m/S 754 mmHg 54%
16:00 +26°C° 0 mm 6 m/S 754 mmHg 59%
17:00 +23°C° 0 mm 6 m/S 754 mmHg 64%
18:00 +22°C° 0 mm 6 m/S 754 mmHg 74%
19:00 +20°C° 0 mm 6 m/S 754 mmHg 84%
20:00 +19°C° 0 mm 5 m/S 754 mmHg 94%
21:00 +19°C° 0 mm 5 m/S 754 mmHg 94%
22:00 +19°C° 0 mm 5 m/S 754 mmHg 95%
23:00 +19°C° 0 mm 5 m/S 754 mmHg 95%

9 August, Sonntag

Zeit Temperatur Niederschläge Wind Luftdruck Luftfeuchtigkeit
00:00 +19°C° 0 mm 5 m/S 754 mmHg 94%
01:00 +19°C° 0 mm 5 m/S 753 mmHg 93%
02:00 +19°C° 0 mm 5 m/S 753 mmHg 92%
03:00 +19°C° 0 mm 5 m/S 753 mmHg 92%
04:00 +19°C° 0 mm 5 m/S 753 mmHg 91%
05:00 +19°C° 0 mm 5 m/S 753 mmHg 91%
06:00 +20°C° 0 mm 5 m/S 753 mmHg 86%
07:00 +21°C° 0 mm 5 m/S 753 mmHg 80%
08:00 +22°C° 0 mm 5 m/S 753 mmHg 75%
09:00 +23°C° 0 mm 5 m/S 753 mmHg 70%
10:00 +24°C° 0 mm 6 m/S 753 mmHg 64%
11:00 +26°C° 0 mm 6 m/S 753 mmHg 59%
12:00 +27°C° 0 mm 6 m/S 753 mmHg 59%
13:00 +27°C° 0 mm 6 m/S 753 mmHg 58%
14:00 +27°C° 0 mm 7 m/S 753 mmHg 58%
15:00 +24°C° 0 mm 7 m/S 753 mmHg 63%
16:00 +23°C° 0 mm 7 m/S 752 mmHg 69%
17:00 +22°C° 0 mm 7 m/S 752 mmHg 74%
18:00 +21°C° 0 mm 7 m/S 753 mmHg 78%
19:00 +20°C° 0 mm 7 m/S 753 mmHg 82%
20:00 +18°C° 0 mm 7 m/S 753 mmHg 86%
21:00 +18°C° 0 mm 7 m/S 753 mmHg 86%
22:00 +18°C° 0 mm 7 m/S 753 mmHg 87%
23:00 +18°C° 0 mm 7 m/S 753 mmHg 87%

10 August, Montag

Zeit Temperatur Niederschläge Wind Luftdruck Luftfeuchtigkeit
00:00 +18°C° 0 mm 7 m/S 753 mmHg 86%
01:00 +18°C° 0 mm 7 m/S 752 mmHg 86%
02:00 +18°C° 0 mm 7 m/S 752 mmHg 85%
03:00 +18°C° 0 mm 7 m/S 752 mmHg 85%
04:00 +19°C° 0 mm 6 m/S 752 mmHg 85%
05:00 +19°C° 0 mm 6 m/S 752 mmHg 84%
06:00 +20°C° 0 mm 6 m/S 752 mmHg 81%
07:00 +20°C° 0 mm 6 m/S 752 mmHg 78%
08:00 +21°C° 0 mm 6 m/S 752 mmHg 74%
09:00 +22°C° 0 mm 6 m/S 752 mmHg 70%
10:00 +23°C° 0 mm 5 m/S 752 mmHg 66%
11:00 +25°C° 0 mm 5 m/S 752 mmHg 62%
12:00 +25°C° 0 mm 5 m/S 752 mmHg 61%
13:00 +26°C° 0 mm 6 m/S 752 mmHg 59%
14:00 +26°C° 0 mm 6 m/S 751 mmHg 58%
15:00 +24°C° 0 mm 6 m/S 752 mmHg 63%
16:00 +23°C° 0 mm 6 m/S 752 mmHg 68%
17:00 +22°C° 0 mm 6 m/S 752 mmHg 73%
18:00 +21°C° 0 mm 6 m/S 752 mmHg 77%
19:00 +20°C° 0 mm 6 m/S 752 mmHg 82%
20:00 +19°C° 0 mm 5 m/S 752 mmHg 87%
21:00 +19°C° 0 mm 5 m/S 752 mmHg 87%
22:00 +19°C° 0 mm 5 m/S 752 mmHg 87%
23:00 +19°C° 0 mm 5 m/S 752 mmHg 87%

11 August, Dienstag

Zeit Temperatur Niederschläge Wind Luftdruck Luftfeuchtigkeit
00:00 +19°C° 0 mm 5 m/S 752 mmHg 87%
01:00 +19°C° 0 mm 4 m/S 752 mmHg 87%
02:00 +18°C° 0 mm 4 m/S 752 mmHg 87%
03:00 +19°C° 0 mm 4 m/S 752 mmHg 85%
04:00 +19°C° 0 mm 3 m/S 752 mmHg 83%
05:00 +19°C° 0 mm 3 m/S 752 mmHg 81%
06:00 +20°C° 0 mm 3 m/S 752 mmHg 76%
07:00 +21°C° 0 mm 3 m/S 752 mmHg 70%
08:00 +23°C° 0 mm 2 m/S 752 mmHg 65%
09:00 +25°C° 0 mm 3 m/S 752 mmHg 59%
10:00 +26°C° 0 mm 3 m/S 752 mmHg 53%
11:00 +28°C° 0 mm 3 m/S 752 mmHg 47%
12:00 +28°C° 0 mm 4 m/S 752 mmHg 49%
13:00 +27°C° 0 mm 4 m/S 752 mmHg 52%
14:00 +27°C° 0 mm 5 m/S 752 mmHg 54%
15:00 +26°C° 0 mm 5 m/S 752 mmHg 60%
16:00 +23°C° 0 mm 5 m/S 751 mmHg 66%
17:00 +22°C° 0 mm 5 m/S 751 mmHg 72%
18:00 +21°C° 0 mm 5 m/S 752 mmHg 79%
19:00 +20°C° 0 mm 5 m/S 752 mmHg 87%
20:00 +17°C° 0 mm 5 m/S 752 mmHg 95%
21:00 +17°C° 0 mm 5 m/S 752 mmHg 93%
22:00 +19°C° 0 mm 5 m/S 752 mmHg 92%
23:00 +19°C° 0 mm 5 m/S 752 mmHg 90%
Mehr zeigen